Weather History for KLBL - October, 2013

Change the Weather History Date:

Wednesday, October 2, 2013

  Actual Average Record
Temperature  
Mean Temperature 73 °F -  
Max Temperature 87 °F 82 °F 98 °F (1989)
Min Temperature 59 °F 50 °F 35 °F (1999)
Cooling Degree Days 8    
Growing Degree Days 23 (Base 50)    
Moisture  
Dew Point 56 °F    
Average Humidity 62    
Maximum Humidity 83    
Minimum Humidity 29    
Precipitation  
Precipitation 0.00 in - - ()
Sea Level Pressure  
Sea Level Pressure 29.87 in    
Wind  
Wind Speed 10 mph (SSE)    
Max Wind Speed 21 mph    
Max Gust Speed 24 mph    
Visibility 10 miles    
Events      
Averages and records for this station are not official NWS values.
T = Trace of Precipitation, MM = Missing Value Source: NWS Daily Summary

Daily Weather History Graph

Daily Weather History Graph

Search for Another Location

Airport or City:

Trip Planner

Search our weather history database for the weather conditions in past years. The results will help you decide how hot, cold, wet, or windy it might be!

Date:

Astronomy

Oct. 02, 2013 Rise Set
Actual Time 7:40 AM CDT 7:25 PM CDT
Civil Twilight 7:14 AM CDT 7:51 PM CDT
Nautical Twilight 6:44 AM CDT 8:21 PM CDT
Astronomical Twilight 6:13 AM CDT 8:51 PM CDT
Moon 5:17 AM CDT (10/2) 6:00 PM CDT (10/2)
Length of Visible Light 12h 36m
Length of Day
11h 44m
Waning Crescent, 6% of the Moon is Illuminated
Oct 2
Waning Crescent
Oct 4
New
Oct 11
First Quarter
Oct 18
Full
Oct 26
Last Quarter

Hourly Weather History & Observations

Time (CDT) Temp. Heat Index Dew Point Humidity Pressure Visibility Wind Dir Wind Speed Gust Speed Precip Events Conditions
12:15 AM 64.4 °F - 55.4 °F 73% 29.94 in 10.0 mi SE 9.2 mph - N/A   Clear
12:35 AM 66.2 °F - 55.4 °F 68% 29.94 in 10.0 mi SSE 9.2 mph - N/A   Clear
12:55 AM 64.4 °F - 55.4 °F 73% 29.94 in 10.0 mi SSE 6.9 mph - N/A   Clear
1:15 AM 64.4 °F - 55.4 °F 73% 29.93 in 10.0 mi SSE 6.9 mph - N/A   Clear
1:35 AM 62.6 °F - 53.6 °F 72% 29.93 in 10.0 mi SE 8.1 mph - N/A   Clear
1:55 AM 64.4 °F - 55.4 °F 73% 29.93 in 10.0 mi SE 10.4 mph - N/A   Clear
2:15 AM 64.4 °F - 55.4 °F 73% 29.93 in 10.0 mi SSE 8.1 mph - N/A   Clear
2:35 AM 64.4 °F - 55.4 °F 73% 29.93 in 10.0 mi SSE 6.9 mph - N/A   Clear
2:55 AM 62.6 °F - 55.4 °F 77% 29.93 in 10.0 mi SSE 8.1 mph - N/A   Clear
3:15 AM 62.6 °F - 53.6 °F 72% 29.92 in 10.0 mi SSE 6.9 mph - N/A   Clear
3:35 AM 62.6 °F - 53.6 °F 72% 29.92 in 10.0 mi SSE 5.8 mph - N/A   Clear
3:55 AM 60.8 °F - 53.6 °F 77% 29.91 in 10.0 mi SE 6.9 mph - N/A   Clear
4:15 AM 60.8 °F - 53.6 °F 77% 29.91 in 10.0 mi SE 6.9 mph - N/A   Clear
4:35 AM 60.8 °F - 53.6 °F 77% 29.91 in 10.0 mi SE 5.8 mph - N/A   Clear
4:55 AM 60.8 °F - 53.6 °F 77% 29.90 in 10.0 mi ESE 5.8 mph - N/A   Clear
5:15 AM 60.8 °F - 53.6 °F 77% 29.90 in 10.0 mi ESE 5.8 mph - N/A   Clear
5:35 AM 60.8 °F - 53.6 °F 77% 29.90 in 10.0 mi ESE 5.8 mph - N/A   Clear
5:55 AM 60.8 °F - 53.6 °F 77% 29.91 in 10.0 mi ESE 6.9 mph - N/A   Clear
6:15 AM 60.8 °F - 53.6 °F 77% 29.91 in 10.0 mi ESE 5.8 mph - N/A   Clear
6:35 AM 60.8 °F - 53.6 °F 77% 29.91 in 10.0 mi ESE 8.1 mph - N/A   Clear
6:55 AM 60.8 °F - 53.6 °F 77% 29.91 in 10.0 mi ESE 6.9 mph - N/A   Clear
7:15 AM 59.0 °F - 53.6 °F 82% 29.92 in 10.0 mi ESE 5.8 mph - N/A   Clear
7:35 AM 59.0 °F - 53.6 °F 82% 29.91 in 10.0 mi ESE 6.9 mph - N/A   Clear
7:55 AM 60.8 °F - 55.4 °F 82% 29.91 in 10.0 mi ESE 8.1 mph - N/A   Clear
8:15 AM 60.8 °F - 55.4 °F 82% 29.91 in 10.0 mi SE 9.2 mph - N/A   Clear
8:35 AM 60.8 °F - 55.4 °F 82% 29.92 in 10.0 mi SE 10.4 mph - N/A   Clear
8:55 AM 62.6 °F - 57.2 °F 82% 29.92 in 10.0 mi SE 9.2 mph - N/A   Clear
9:15 AM 64.4 °F - 57.2 °F 77% 29.92 in 10.0 mi SE 9.2 mph - N/A   Clear
9:35 AM 64.4 °F - 59.0 °F 83% - 10.0 mi North - - N/A   Clear
9:55 AM - - - N/A% - - North - - N/A   Unknown
10:15 AM - - - N/A% - - North - - N/A   Unknown
10:35 AM 68.0 °F - 60.8 °F 78% - 10.0 mi South 13.8 mph 18.4 mph N/A   Unknown
10:55 AM - - - N/A% - 10.0 mi North - - N/A   Mostly Cloudy
11:15 AM - - - N/A% 29.91 in - South 12.7 mph - N/A   Unknown
11:35 AM 71.6 °F - 59.0 °F 64% 29.91 in 10.0 mi South 10.4 mph - N/A   Clear
11:55 AM 73.4 °F - 60.8 °F 65% 29.90 in 10.0 mi South 10.4 mph - N/A   Clear
12:15 PM 73.4 °F - 60.8 °F 65% 29.90 in 10.0 mi South 10.4 mph - N/A   Clear
12:35 PM 75.2 °F - 60.8 °F 61% 29.89 in 10.0 mi SSE 10.4 mph - N/A   Clear
12:55 PM 78.8 °F - 60.8 °F 54% 29.88 in 10.0 mi SSE 11.5 mph 16.1 mph N/A   Clear
1:15 PM 78.8 °F - 60.8 °F 54% 29.87 in 10.0 mi South 12.7 mph - N/A   Clear
1:35 PM 80.6 °F 81.5 °F 60.8 °F 51% 29.87 in 10.0 mi South 12.7 mph 17.3 mph N/A   Clear
1:55 PM 80.6 °F 81.1 °F 59.0 °F 48% 29.86 in 10.0 mi South 13.8 mph - N/A   Clear
2:15 PM 80.6 °F 81.1 °F 59.0 °F 48% 29.85 in 10.0 mi South 12.7 mph 18.4 mph N/A   Clear
2:35 PM 82.4 °F 82.5 °F 59.0 °F 45% 29.83 in 10.0 mi SSE 13.8 mph 19.6 mph N/A   Clear
2:55 PM 84.2 °F 83.8 °F 59.0 °F 42% 29.83 in 10.0 mi SSE 11.5 mph 19.6 mph N/A   Clear
3:15 PM 84.2 °F 83.5 °F 57.2 °F 40% 29.82 in 10.0 mi South 10.4 mph 16.1 mph N/A   Clear
3:35 PM 84.2 °F 83.5 °F 57.2 °F 40% 29.81 in 10.0 mi SSE 12.7 mph 20.7 mph N/A   Clear
3:55 PM 86.0 °F 84.5 °F 55.4 °F 35% 29.81 in 10.0 mi South 13.8 mph 20.7 mph N/A   Clear
4:15 PM 87.8 °F 86.1 °F 55.4 °F 33% 29.80 in 10.0 mi SSE 16.1 mph 19.6 mph N/A   Clear
4:35 PM 87.8 °F 85.7 °F 53.6 °F 31% 29.80 in 10.0 mi South 15.0 mph 23.0 mph N/A   Clear
4:55 PM 87.8 °F 85.7 °F 53.6 °F 31% 29.80 in 10.0 mi South 15.0 mph 20.7 mph N/A   Clear
5:15 PM 87.8 °F 85.7 °F 53.6 °F 31% 29.79 in 10.0 mi South 18.4 mph 23.0 mph N/A   Clear
5:35 PM 87.8 °F - 51.8 °F 29% 29.79 in 10.0 mi South 18.4 mph - N/A   Clear
5:55 PM 86.0 °F 84.2 °F 53.6 °F 33% 29.79 in 10.0 mi South 20.7 mph 24.2 mph N/A   Clear
6:15 PM 84.2 °F 82.8 °F 53.6 °F 35% 29.79 in 10.0 mi SSE 16.1 mph - N/A   Clear
6:35 PM 84.2 °F 82.8 °F 53.6 °F 35% 29.79 in 10.0 mi South 19.6 mph - N/A   Clear
6:55 PM 82.4 °F 81.4 °F 53.6 °F 37% 29.79 in 10.0 mi South 17.3 mph - N/A   Clear
7:15 PM 80.6 °F 80.3 °F 53.6 °F 39% 29.79 in 10.0 mi South 16.1 mph - N/A   Clear
7:35 PM 78.8 °F - 53.6 °F 42% 29.79 in 10.0 mi SSE 15.0 mph - N/A   Clear
7:55 PM 77.0 °F - 53.6 °F 44% 29.80 in 10.0 mi SSE 10.4 mph - N/A   Clear
8:15 PM 75.2 °F - 55.4 °F 50% 29.80 in 10.0 mi SSE 12.7 mph - N/A   Clear
8:35 PM 75.2 °F - 57.2 °F 53% 29.81 in 10.0 mi SSE 12.7 mph - N/A   Clear
8:55 PM 75.2 °F - 57.2 °F 53% 29.81 in 10.0 mi SSE 12.7 mph - N/A   Clear
9:15 PM 73.4 °F - 59.0 °F 61% 29.81 in 10.0 mi SSE 11.5 mph - N/A   Clear
9:35 PM 73.4 °F - 59.0 °F 61% 29.82 in 10.0 mi SSE 13.8 mph - N/A   Clear
9:55 PM 71.6 °F - 60.8 °F 69% 29.82 in 10.0 mi SSE 13.8 mph - N/A   Clear
10:15 PM 71.6 °F - 60.8 °F 69% 29.82 in 10.0 mi SSE 12.7 mph - N/A   Clear
10:35 PM 71.6 °F - 60.8 °F 69% 29.82 in 10.0 mi SSE 17.3 mph - N/A   Clear
10:55 PM 71.6 °F - 60.8 °F 69% 29.82 in 10.0 mi SSE 15.0 mph - N/A   Clear
11:15 PM 71.6 °F - 60.8 °F 69% 29.82 in 10.0 mi SSE 15.0 mph - N/A   Clear
11:35 PM 71.6 °F - 60.8 °F 69% 29.82 in 10.0 mi SSE 15.0 mph - N/A   Clear
11:55 PM 71.6 °F - 60.8 °F 69% 29.81 in 10.0 mi SSE 17.3 mph - N/A   Clear